Retour au catalogue

FENGYUN 1C DEB

ActifSSO
NORAD 30200·DEBRIS·🇨🇳 China

Lancé May 10, 1999 depuis Taiyuan Satellite Launch Center

Loading…

Prochains Passages (prochaines 24 heures)

TLE

FraisSource: Space-Track

Époque: Sep 14, 2026, 07:47 UTC

1 30200U 99025VH  26257.32445287  .00000150  00000-0  79337-4 0  9996
2 30200  99.0945 106.2510 0147093  31.7562 329.2383 14.22461938 18960

Suivez FENGYUN 1C DEB en temps réel avec AllMySat

Download on the App Store